{"data":{"norad_id":68364,"epoch":"2026-05-25T03:49:29.878176Z","epoch_age_seconds":71656,"freshness":"FRESH","line1":"1 68364U 26061E   26145.15937359  .00025052  00000+0  33957-3 0  9995","line2":"2 68364  82.2962  38.9165 0006691 114.9622 245.2328 15.57495081  9861","mean_motion":15.57495081,"eccentricity":0.0006691,"inclination_deg":82.2962,"raan_deg":38.9165,"arg_perigee_deg":114.9622,"mean_anomaly_deg":245.2328,"bstar":0.00033957,"rev_number":986,"period_min":92.456150749153,"perigee_km":390.37757571321,"apogee_km":399.44126643389,"semimajor_km":6773.0464210735,"source":"CELESTRAK","updated_at":"2026-05-25T13:38:07.764635Z"}}